Location: Krasnoyarskiy Pitomnik
(51.1333°N, 71.6167°E)
Time: 15:38:28
(UTC+00:00)

Cosmos 1980 Rocket - Pass Details

Date: 22 October 2021
Orbit: 828 x 851 km, 71.0° (Epoch: 27 November)

Event Time Altitude Azimuth Distance (km) Brightness Sun altitude
Rises 14:03:41 0° 235° (SW) 3,392 6.1 -19.0°
Reaches altitude 10° 14:06:17 10° 243° (WSW) 2,464 5.4 -19.4°
Maximum altitude 14:11:34 39° 312° (NW) 1,258 3.5 -20.3°
Drops below altitude 10° 14:16:54 10° 21° (NNE) 2,488 4.5 -21.1°
Enters shadow 14:19:18 - 28° (NNE) 3,339 5.1 -21.5°
